International Skating Union - Official Site

ISU World Cup Final Heerenveen
March 11-13, 2016

Draw | Lap Times | Index | World Cup

Referee: Susan  SANDVIG-SHOBE  (USA)
Starter: Andrè  de VRIES  (NED)
StartTime: EndTime: Air Temp: Ice Temp: Humidity:
17:09 17:17 17.0 ℃ -13.7 ℃ 41%
Result Team Pursuit Ladies
Rankings as of Mar 12 2016 5:18PM
Rank: No.: Team: Nation: Time: Behind: Points:
Total 4
1 3 Japan (121) Misaki Oshigiri (122) Miho Takagi (123) Nana Takagi JPN JPN 2:58.060.5 - 18.33 - (18.3)
1.0 - 32.48 - (14.1)
1.5 - 46.72 - (14.2)
2.0 - 1:00.84 - (14.1)
2.5 - 1:15.18 - (14.3)
3.0 - 1:29.66 - (14.4)
3.5 - 1:44.40 - (14.7)
4.0 - 1:59.30 - (14.8)
4.5 - 2:13.83 - (14.5)
5.0 - 2:28.52 - (14.6)
5.5 - 2:43.27 - (14.7)
6.0 - 2:58.06 - (14.7)
150
2 4 Netherlands (126) Antoinette de Jong (130) Marrit Leenstra (139) Ireen Wüst NED NED 2:58.210.5 - 18.57 - (18.5)
1.0 - 32.47 - (13.8)
1.5 - 46.39 - (13.9)
2.0 - 1:00.72 - (14.3)
2.5 - 1:15.12 - (14.4)
3.0 - 1:29.56 - (14.4)
3.5 - 1:44.19 - (14.6)
4.0 - 1:59.01 - (14.8)
4.5 - 2:13.54 - (14.5)
5.0 - 2:28.39 - (14.8)
5.5 - 2:43.23 - (14.8)
6.0 - 2:58.21 - (14.9)
0.15 120
3 2 Poland (142) Natalia Czerwonka (143) Katarzyna Wozniak (144) Luiza Zlotkowska POL POL 3:02.340.5 - 19.13 - (19.1)
1.0 - 33.74 - (14.6)
1.5 - 48.21 - (14.4)
2.0 - 1:02.97 - (14.7)
2.5 - 1:17.82 - (14.8)
3.0 - 1:32.68 - (14.8)
3.5 - 1:47.82 - (15.1)
4.0 - 2:02.82 - (15.0)
4.5 - 2:18.02 - (15.2)
5.0 - 2:32.79 - (14.7)
5.5 - 2:47.46 - (14.6)
6.0 - 3:02.34 - (14.8)
4.28 104
4 1 Russia (145) Olga Graf (146) Yekaterina Shikhova (147) Natalya Voronina RUS RUS 3:03.100.5 - 19.20 - (19.1)
1.0 - 33.42 - (14.2)
1.5 - 47.68 - (14.2)
2.0 - 1:01.96 - (14.2)
2.5 - 1:16.51 - (14.5)
3.0 - 1:31.41 - (14.8)
3.5 - 1:46.63 - (15.2)
4.0 - 2:01.65 - (15.0)
4.5 - 2:16.81 - (15.1)
5.0 - 2:32.35 - (15.5)
5.5 - 2:47.66 - (15.3)
6.0 - 3:03.10 - (15.4)
5.04 90